IMAP

基本信息
目录编号:
65725
目录名称:
IMAP
国际标识:
2025-215A
轨道中心:
EARTH
卫星名称:
IMAP
卫星全名:
IMAP
卫星状态:
已陨落 最后检测时间 2025-09-26
发射日期:
2025-09-24 UTC
国别 :
美国 (US)
星等 :
--
轨道信息
数据来源 国际轨道数据
星历时间: 2025-09-24T20:44:07+0800
轨道信息已过期26天
半长轴: 617213.091km
偏心率: 0.98937
轨道倾角: 28.380°
近地点辐角 3.550°
升交点赤经 11.900°
平近点角 0.002°
近地点: 182.84km
远地点: 1221487.072km
周期: 80428.954分钟
每日圈数: 0.017904
详细信息
使用方式:
暂无